Regional Weather Roundup
Issued by NWS Sioux Falls, SD

Home | Current Version | Previous Version | Text Only | Print | Product List | Glossary On
Versions: 1 2 3 4 5 6 7 8 9 10 11 12 13 14 15 16 17 18 19 20 21 22 23 24 25 26 27 28 29 30 31 32 33 34 35 36 37 38 39 40 41 42 43 44 45 46 47 48 49 50
000
ASUS43 KFSD 271902
RWRFSD

WEATHER ROUNDUP FOR SE SOUTH DAKOTA/SW MINNESOTA/NW IOWA
NATIONAL WEATHER SERVICE SIOUX FALLS SD
200 PM CDT TUE SEP 27 2016

NOTE: "FAIR" INDICATES FEW OR NO CLOUDS BELOW 12,000 FEET WITH NO
SIGNIFICANT WEATHER AND OR OBSTRUCTIONS TO VISIBILITY.


SDZ038>040-050-052>070-272000-
SOUTHEAST SOUTH DAKOTA

CITY           SKY/WX    TMP DP  RH WIND       PRES   REMARKS
CHAMBERLAIN    SUNNY     78  45  30 NW7G16    29.94F
HURON          SUNNY     74  42  31 NW13      29.90F
MADISON        FAIR      66  41  39 NW17G24   29.92F
MITCHELL       SUNNY     76  43  30 NW13G21   29.92F
SIOUX FALLS    MOSUNNY   73  42  32 NW20G29   29.90F
WINNER         FAIR      81  42  25 NW15G21   29.95F
YANKTON        SUNNY     73  43  33 W15       29.92F
$$

MNZ071-072-080-081-089-090-097-098-272000-
SOUTHWEST MINNESOTA

CITY           SKY/WX    TMP DP  RH WIND       PRES   REMARKS
FAIRMONT       SUNNY     67  30  25 NW18G31   29.85F
JACKSON        SUNNY     70  25  18 W18G28    29.87F
LUVERNE        SUNNY     68  36  30 W18G24    29.90F
MARSHALL       SUNNY     68  32  26 NW18G29   29.86F
MONTEVIDEO     SUNNY     66  36  32 N16G22    29.87F
PIPESTONE      SUNNY     68  34  28 NW16G24   29.90F
REDWOOD FALLS  SUNNY     66  33  29 NW21G29   29.84F
TRACY          SUNNY     69  32  25 NW17G23   29.87F
WINDOM         SUNNY     68  27  21 W22G29    29.86F
WORTHINGTON    SUNNY     67  39  35 NW20G30   29.88F
$$

IAZ001>003-012>014-020>022-031-032-NEZ013-014-SDZ071-272000-
NORTHWEST IOWA

CITY           SKY/WX    TMP DP  RH WIND       PRES   REMARKS
CHEROKEE       SUNNY     70  42  36 NW10G25   29.90F
DENISON        SUNNY     73  41  31 W16G24    29.90F
ESTHERVILLE    SUNNY     69  33  26 NW20G28   29.85F
LE MARS        SUNNY     72  43  35 W16G25    29.92F
ORANGE CITY    SUNNY     72  43  35 NW18      29.91F
SHELDON        SUNNY     70  39  32 W16G23    29.89F
SIOUX CITY     SUNNY     75  44  33 NW16G22   29.92F
SPENCER        SUNNY     71  40  32 NW20G31   29.88F
STORM LAKE     SUNNY     72  41  33 W15G24    29.90F
$$

ABBREVIATIONS USED IN REMARKS
   TC - TEMPERATURE IN CELSIUS
  WCI - WIND CHILL INDEX
   HX - HEAT INDEX
  VSB - VISIBILITY





USA.gov is the U.S. government's official web portal to all federal, state and local government web resources and services.